Find Starlink 30874

NORAD ID: 58227 Int'l Des: 2023-170 Owner: SPXS Country: US Constellation: starlink operational
LEOCIRCULAR

リアルタイム位置

3D地球を読み込み中...

Starlink 30874について

説明を読み込み中...

次回通過

Passes for default location (London). Set your location on the main map for personalized predictions.

高度履歴

Loading altitude history...

軌道要素

1 58227U 23170X 26121.42914196 .00005607 00000-0 21303-3 0 9995
2 58227 43.0065 256.5136 0001745 269.8548 90.2104 15.27595347138366
Epoch: May 1, 2026 • Age: 7 hours

現在のステータス

高度 486.4 km
速度 7.63 km/s
衛星直下点 39.06°N, 157.76°W
打ち上げ日 Nov 4, 2023
運用期間 2.4 years
タイプ internet

技術仕様

分類 Payload
質量 730.00 kg
乾燥質量 700.00 kg
総質量 730.00 kg
長さ 0.30 m
直径 4.10 m
スパン 29.00 m
形状 Box + pan
製造者 SPXS
バスタイプ Starlink V2M
フェーズステータス In Orbit
所有者/国 SPXS/US

Most Searched